Toronto Pearson, Ontario

3:45 AM EDT on July 24, 2019 (GMT -0400)
Toronto-Pearson International

Weather History for CYYZ - May, 2019

Change the Weather History Date:

Tuesday, May 21, 2019

  Actual Average Record
Temperature  
Mean Temperature 52 °F -  
Max Temperature 65 °F 71 °F 79 °F (2012)
Min Temperature 40 °F 49 °F 33 °F (2002)
Degree Days  
Heating Degree Days 12    
Growing Degree Days 2 (Base 50)    
Moisture  
Dew Point 37 °F    
Average Humidity 53    
Maximum Humidity 87    
Minimum Humidity 19    
Precipitation  
Precipitation 0.00 in 0.09 in - ()
Sea Level Pressure  
Sea Level Pressure 30.12 in    
Wind  
Wind Speed 9 mph ()    
Max Wind Speed 14 mph    
Max Gust Speed 26 mph    
Visibility 15.0 miles    
Events      
Averages and records for this station are not official NWS values.
T = Trace of Precipitation, MM = Missing Value Source: Averaged Metar Reports

Daily Weather History Graph

Daily Weather History Graph

Search for Another Location

Airport or City:

Astronomy

May. 21, 2019 Rise Set
Actual Time 5:47 AM EDT 8:43 PM EDT
Civil Twilight 5:13 AM EDT 9:17 PM EDT
Nautical Twilight 4:30 AM EDT 10:00 PM EDT
Astronomical Twilight 3:40 AM EDT 10:51 PM EDT
Moon 11:38 PM EDT (5/21) 8:01 AM EDT (5/21)
Length of Visible Light 16h 03m
Length of Day
14h 55m
Waning Gibbous, 91% of the Moon is Illuminated
May 21
Waning Gibbous
May 26
Last Quarter
Jun 3
New
Jun 10
First Quarter
Jun 17
Full

Hourly Weather History & Observations

Time (EDT) Temp. Windchill Dew Point Humidity Pressure Visibility Wind Dir Wind Speed Gust Speed Precip Events Conditions
12:00 AM 46.4 °F 41.5 °F 39.2 °F 76% 30.04 in 15.0 mi NW 10.4 mph - N/A   Clear
1:00 AM 44.6 °F 40.7 °F 39.2 °F 81% 30.04 in 15.0 mi WNW 6.9 mph - N/A   Clear
2:00 AM 42 °F - 38 °F 80% 30.05 in 15 mi West 8.1 mph - -  
2:00 AM 42.8 °F 38.0 °F 37.4 °F 81% 30.05 in 15.0 mi West 8.1 mph - N/A   Clear
3:00 AM 41.0 °F 35.2 °F 37.4 °F 87% 30.06 in 15.0 mi West 9.2 mph - N/A   Clear
4:00 AM 41.0 °F 38.0 °F 35.6 °F 81% 30.06 in 15.0 mi SW 4.6 mph - N/A   Clear
5:00 AM 41 °F - 36 °F 75% 30.06 in 15 mi West 9.2 mph - -  
5:00 AM 41.0 °F 35.2 °F 35.6 °F 81% 30.06 in 15.0 mi West 9.2 mph - N/A   Clear
6:00 AM 42.8 °F 37.5 °F 35.6 °F 76% 30.09 in 15.0 mi West 9.2 mph - N/A   Clear
8:00 AM 51 °F - 38 °F 50% 30.09 in 15 mi NNW 10.4 mph - -   Clear
9:00 AM 53.6 °F - 41.0 °F 62% 30.11 in 15.0 mi North 8.1 mph 23.0 mph N/A   Partly Cloudy
10:00 AM 55.4 °F - 41.0 °F 58% 30.13 in 15.0 mi North 9.2 mph 26.5 mph N/A   Scattered Clouds
11:00 AM 57 °F - 41 °F 43% 30.14 in 15 mi North 10.4 mph - -  
11:00 AM 57.2 °F - 41.0 °F 55% 30.14 in 15.0 mi North 11.5 mph 21.9 mph N/A   Partly Cloudy
12:00 PM 59.0 °F - 41.0 °F 51% 30.14 in 15.0 mi NNE 10.4 mph - N/A   Partly Cloudy
1:00 PM 60.8 °F - 39.2 °F 45% 30.14 in 15.0 mi NNW 9.2 mph 19.6 mph N/A   Partly Cloudy
2:00 PM 63 °F - 40 °F 30% 30.13 in 15 mi NNE 11.5 mph - -   Scattered Clouds
2:00 PM 62.6 °F - 39.2 °F 42% 30.13 in 15.0 mi NNE 10.4 mph 24.2 mph N/A   Partly Cloudy
3:00 PM 64.4 °F - 35.6 °F 34% 30.14 in 15.0 mi NNE 12.7 mph 19.6 mph N/A   Partly Cloudy
4:00 PM 64.4 °F - 33.8 °F 32% 30.14 in 15.0 mi NNE 12.7 mph 20.7 mph N/A   Partly Cloudy
5:00 PM 64 °F - 32 °F 19% 30.15 in 15 mi NNE 11.5 mph - -  
5:00 PM 64.4 °F - 32.0 °F 30% 30.15 in 15.0 mi NNW 10.4 mph 20.7 mph N/A   Scattered Clouds
6:00 PM 62.6 °F - 33.8 °F 34% 30.15 in 15.0 mi NNE 9.2 mph 17.3 mph N/A   Partly Cloudy
6:26 PM 62.6 °F - 37.4 °F 39% 30.14 in 15.0 mi Variable 12.7 mph - N/A   Partly Cloudy
7:00 PM 62.6 °F - 37.4 °F 39% 30.15 in 15.0 mi ENE 9.2 mph 21.9 mph N/A   Scattered Clouds
8:00 PM 60 °F - 38 °F 32% 30.17 in 15 mi NNE 9.2 mph - -   Scattered Clouds
8:00 PM 60.8 °F - 37.4 °F 42% 30.17 in 15.0 mi NE 11.5 mph - N/A   Mostly Cloudy
9:00 PM 59.0 °F - 37.4 °F 45% 30.18 in 15.0 mi NE 12.7 mph 19.6 mph N/A   Mostly Cloudy
10:00 PM 55.4 °F - 37.4 °F 51% 30.19 in 15.0 mi NE 11.5 mph - N/A   Scattered Clouds
11:00 PM 54 °F - 36 °F 39% 30.20 in 15 mi NE 13.8 mph - -  
11:00 PM 53.6 °F - 35.6 °F 51% 30.20 in 15.0 mi NE 13.8 mph - N/A   Partly Cloudy